Skip Page Navigation
NASA JPL Caltech
NASA Logo - Jet Propulsion Laboratory + View the NASA Portal
+ Near-Earth Object (NEO) Program
Search JPL
JPL Home Earth Solar System Stars & Galaxies Technology
JPL Solar System Dynamics
BODIES ORBITS EPHEMERIDES TOOLS PHYSICAL DATA DISCOVERY FAQ SITE MAP
JPL Small-Body Database Browser
Search: [ help ]  
11297 (1992 PP6)
Classification: Main-belt Asteroid          SPK-ID: 2011297
Ephemeris | Orbit Diagram | Orbital Elements | Physical Parameters | Discovery Circumstances ]

[ show orbit diagram ]
Orbital Elements at Epoch 2456400.5 (2013-Apr-18.0) TDB
Reference: MPO233583 (heliocentric ecliptic J2000)
 Element Value Uncertainty (1-sigma)   Units 
e 0.0653199 n/a  
a 2.3261328 n/a AU
q 2.1741900 n/a AU
i 8.98281 n/a deg
node 131.06455 n/a deg
peri 217.58874 n/a deg
M 273.65121 n/a deg
tp 2456711.3164115
(2014-Feb-22.81641150)
n/a JED
period 1295.8364343
3.55
n/a
n/a
d
yr
n 0.27781284 n/a deg/d
Q 2.4780756 n/a AU
  Orbit Determination Parameters
   # obs. used (total)      683  
   first obs. used      1985-??-??  
   last obs. used      2012-06-15  
   # oppositions      14  
   planetary ephem.      DE403  
   condition code      0  
   fit RMS      0.57  
   data source      MPC:mpn  
   producer      MPCLINUX  

Additional Information
 T_jup = 3.555 

Ephemeris | Orbit Diagram | Orbital Elements | Physical Parameters | Discovery Circumstances ]

Physical Parameter Table
Parameter Symbol Value Units Sigma Reference Notes
absolute magnitude H 14.0 mag n/a PDS3 (MPC 35565)  

11297 (1992 PP6)          Discovered 1992-Aug-05 by Debehogne, H., Lopez G., A. at La Silla (809)
Reference: 19990831/Numbers.arcLast Updated: 2004-04-19

Alternate Designations
 1992 PP6 = 1985 PY = 1995 KO5 = 1998 FL87 
Ephemeris | Orbit Diagram | Orbital Elements | Physical Parameters | Discovery Circumstances ]
ABOUT SSD CREDITS/AWARDS PRIVACY/COPYRIGHT GLOSSARY LINKS
FirstGov 2013-May-25 08:53 UT
(server date/time)  
NASA Home Page
Site Manager:   Donald K. Yeomans
Webmaster  Alan B. Chamberlin